FW4365 Weather Reports


time (UTC)temp
C
wind
direction
speed
KPH
gust
KPH
rain 1hr
cm
rain 24hr
cm
rain mn
cm
humidity
%
barometer
mb
20260505083058 16 46 0.0 9.7 0.00 0.00 0.00 63 1011.9
20260505081521 15 65 3.2 11.3 0.00 0.00 0.00 66 1011.9
20260505080103 15 45 0.0 3.2 0.00 0.00 0.00 70 1011.9
20260505074522 15 52 0.0 4.8 0.00 0.00 0.00 73 1011.9
20260505073103 15 60 0.0 6.4 0.00 0.00 0.00 74 1011.8
20260505071518 15 41 1.6 8.0 0.00 0.00 0.00 75 1011.7
20260505070112 15 20 1.6 6.4 0.00 0.00 0.00 76 1011.6
20260505064554 15 44 0.0 4.8 0.00 0.00 0.00 75 1011.8
20260505063002 15 25 0.0 6.4 0.00 0.00 0.00 74 1011.9
20260505061554 14 39 0.0 0.0 0.00 0.00 0.00 74 1011.8
20260505060016 15 39 0.0 0.0 0.00 0.00 0.00 73 1011.6
20260505054550 15 38 0.0 1.6 0.00 0.00 0.00 73 1011.8
20260505053017 15 41 0.0 0.0 0.00 0.00 0.00 71 1011.7
20260505051606 15 41 0.0 1.6 0.00 0.00 0.00 72 1011.8
20260505041558 16 32 0.0 1.6 0.00 0.00 0.00 71 1011.7
20260505040004 16 31 0.0 3.2 0.00 0.00 0.00 71 1011.6
20260505034630 16 32 0.0 4.8 0.00 0.00 0.00 70 1011.5
20260505033101 16 41 1.6 8.0 0.00 0.00 0.00 69 1011.5
20260505031625 17 13 1.6 8.0 0.00 0.00 0.00 69 1011.5
20260505030038 17 12 4.8 12.9 0.00 0.00 0.00 68 1011.7
20260505024631 17 49 3.2 17.7 0.00 0.00 0.00 66 1011.6
20260505023100 18 3 4.8 24.1 0.00 0.00 0.00 64 1011.6
20260505021510 18 32 9.7 22.5 0.00 0.00 0.00 62 1011.7
20260505020056 18 25 4.8 14.5 0.00 0.00 0.00 60 1011.5
20260505014518 18 15 1.6 11.3 0.00 0.00 0.00 61 1011.2
20260505013108 18 17 6.4 12.9 0.00 0.00 0.00 62 1011.3
20260505011526 18 358 3.2 16.1 0.00 0.00 0.00 62 1011.2
20260505010109 18 20 4.8 16.1 0.00 0.00 0.00 61 1011.2
20260505004538 18 319 1.6 11.3 0.00 0.00 0.00 60 1011.0
20260505003115 18 29 1.6 11.3 0.00 0.00 0.00 58 1011.1
20260505001554 19 29 4.8 20.9 0.00 0.00 0.00 55 1011.0
20260505000014 19 24 9.7 19.3 0.00 0.00 0.00 53 1011.0
20260504234631 19 8 3.2 20.9 0.00 0.00 0.00 51 1011.0
20260504233011 20 29 4.8 12.9 0.00 0.00 0.00 50 1011.1
20260504231614 20 36 6.4 16.1 0.00 0.00 0.00 49 1011.1
20260504230025 20 49 8.0 22.5 0.00 0.00 0.00 46 1011.1
20260504224621 21 319 8.0 24.1 0.00 0.00 0.00 44 1011.0
20260504221634 22 356 4.8 19.3 0.00 0.00 0.00 43 1011.0
20260504220052 22 15 6.4 22.5 0.00 0.00 0.00 41 1011.0
20260504214632 22 339 9.7 22.5 0.00 0.00 0.00 40 1011.0
20260504213052 22 308 11.3 22.5 0.00 0.00 0.00 41 1011.0
20260504211501 22 13 4.8 19.3 0.00 0.00 0.00 42 1010.8
20260504210053 22 15 8.0 32.2 0.00 0.00 0.00 41 1011.0
20260504204640 22 10 11.3 29.0 0.00 0.00 0.00 40 1011.1
20260504203039 22 18 12.9 25.7 0.00 0.00 0.00 38 1011.1
20260504201632 22 344 11.3 24.1 0.00 0.00 0.00 39 1011.3
20260504200043 22 301 8.0 29.0 0.00 0.00 0.00 39 1011.5
20260504194504 21 29 8.0 19.3 0.00 0.00 0.00 40 1011.9
20260504193053 21 10 12.9 25.7 0.00 0.00 0.00 40 1012.1
20260504191509 21 320 8.0 20.9 0.00 0.00 0.00 40 1012.2
20260504190101 21 298 8.0 19.3 0.00 0.00 0.00 41 1012.4
20260504184511 20 26 9.7 25.7 0.00 0.00 0.00 39 1012.7
20260504183102 21 20 8.0 22.5 0.00 0.00 0.00 39 1012.9
20260504181523 20 287 8.0 17.7 0.00 0.00 0.00 41 1013.1
20260504180115 20 25 6.4 20.9 0.00 0.00 0.00 43 1013.4
20260504174519 20 17 9.7 22.5 0.00 0.00 0.00 44 1013.6
20260504173111 19 25 8.0 14.5 0.00 0.00 0.00 46 1013.9
20260504171536 18 332 6.4 14.5 0.00 0.00 0.00 48 1014.1
20260504170105 18 285 6.4 12.9 0.00 0.00 0.00 45 1014.1